Time,TemperatureF,DewpointF,PressureIn,WindDirection,WindDirectionDegrees,WindSpeedMPH,WindSpeedGustMPH,Humidity,HourlyPrecipIn,Conditions,Clouds,dailyrainin,SoftwareType,DateUTC
2013-07-07 00:01:00,83.3,74.9,29.93,NNW,341,3.0,3.0,76,0.00,,,0.00,Wunderground v.1.15,2013-07-07 04:01:00,
2013-07-07 00:06:00,83.3,74.9,29.94,South,176,1.0,8.0,76,0.00,,,0.00,Wunderground v.1.15,2013-07-07 04:06:00,
2013-07-07 00:11:00,83.2,74.8,29.93,WNW,287,3.0,4.0,76,0.00,,,0.00,Wunderground v.1.15,2013-07-07 04:11:00,
2013-07-07 00:16:00,83.2,74.8,29.94,West,278,1.0,7.0,76,0.00,,,0.00,Wunderground v.1.15,2013-07-07 04:16:00,
2013-07-07 00:21:00,83.1,75.1,29.94,West,271,3.0,4.0,77,0.00,,,0.00,Wunderground v.1.15,2013-07-07 04:21:00,
2013-07-07 00:26:00,83.2,75.2,29.93,West,262,1.0,7.0,77,0.00,,,0.00,Wunderground v.1.15,2013-07-07 04:26:00,
2013-07-07 00:31:00,83.2,75.2,29.93,WNW,283,2.0,3.0,77,0.00,,,0.00,Wunderground v.1.15,2013-07-07 04:31:00,
2013-07-07 00:36:00,83.1,75.1,29.94,WNW,287,2.0,5.0,77,0.00,,,0.00,Wunderground v.1.15,2013-07-07 04:36:00,
2013-07-07 00:41:00,83.0,75.0,29.94,West,278,2.0,3.0,77,0.00,,,0.00,Wunderground v.1.15,2013-07-07 04:41:00,
2013-07-07 00:46:00,82.7,75.1,29.94,SW,236,3.0,6.0,78,0.00,,,0.00,Wunderground v.1.15,2013-07-07 04:46:00,
2013-07-07 00:51:00,82.6,75.0,29.93,SW,228,2.0,2.0,78,0.00,,,0.00,Wunderground v.1.15,2013-07-07 04:51:00,
2013-07-07 00:56:00,82.4,74.8,29.93,SW,236,1.0,5.0,78,0.00,,,0.00,Wunderground v.1.15,2013-07-07 04:56:00,
2013-07-07 01:01:00,82.3,75.1,29.93,West,264,2.0,3.0,79,0.00,,,0.00,Wunderground v.1.15,2013-07-07 05:01:00,
2013-07-07 01:06:00,82.1,74.9,29.93,West,279,1.0,4.0,79,0.00,,,0.00,Wunderground v.1.15,2013-07-07 05:06:00,
2013-07-07 01:11:00,82.0,74.8,29.93,WNW,283,1.0,2.0,79,0.00,,,0.00,Wunderground v.1.15,2013-07-07 05:11:00,
2013-07-07 01:16:00,81.8,74.6,29.93,WNW,283,1.0,5.0,79,0.00,,,0.00,Wunderground v.1.15,2013-07-07 05:16:00,
2013-07-07 01:21:00,81.6,74.8,29.93,WSW,250,0.0,2.0,80,0.00,,,0.00,Wunderground v.1.15,2013-07-07 05:21:00,
2013-07-07 01:26:00,81.5,74.7,29.93,SW,236,1.0,4.0,80,0.00,,,0.00,Wunderground v.1.15,2013-07-07 05:26:00,
2013-07-07 01:31:00,81.4,74.6,29.93,WSW,246,4.0,5.0,80,0.00,,,0.00,Wunderground v.1.15,2013-07-07 05:31:00,
2013-07-07 01:36:00,81.3,74.5,29.93,SSW,208,1.0,8.0,80,0.00,,,0.00,Wunderground v.1.15,2013-07-07 05:36:00,
2013-07-07 01:41:00,81.3,74.5,29.93,WNW,285,4.0,4.0,80,0.00,,,0.00,Wunderground v.1.15,2013-07-07 05:41:00,
2013-07-07 01:46:00,81.3,74.5,29.93,WSW,239,3.0,8.0,80,0.00,,,0.00,Wunderground v.1.15,2013-07-07 05:46:00,
2013-07-07 01:51:00,81.2,74.4,29.93,WNW,301,3.0,3.0,80,0.00,,,0.00,Wunderground v.1.15,2013-07-07 05:51:00,
2013-07-07 01:56:00,81.0,74.6,29.93,NW,323,1.0,8.0,81,0.00,,,0.00,Wunderground v.1.15,2013-07-07 05:56:00,
2013-07-07 02:01:00,80.9,74.5,29.92,WNW,300,3.0,3.0,81,0.00,,,0.00,Wunderground v.1.15,2013-07-07 06:01:00,
2013-07-07 02:06:00,80.8,74.4,29.92,WNW,287,3.0,6.0,81,0.00,,,0.00,Wunderground v.1.15,2013-07-07 06:06:00,
2013-07-07 02:11:00,80.7,74.3,29.92,West,279,2.0,3.0,81,0.00,,,0.00,Wunderground v.1.15,2013-07-07 06:11:00,
2013-07-07 02:16:00,80.6,74.2,29.93,SW,225,1.0,3.0,81,0.00,,,0.00,Wunderground v.1.15,2013-07-07 06:16:00,
2013-07-07 02:21:00,80.5,74.5,29.93,West,263,0.0,2.0,82,0.00,,,0.00,Wunderground v.1.15,2013-07-07 06:21:00,
2013-07-07 02:26:00,80.3,74.3,29.93,West,277,1.0,2.0,82,0.00,,,0.00,Wunderground v.1.15,2013-07-07 06:26:00,
2013-07-07 02:31:00,80.2,74.2,29.93,WSW,255,0.0,1.0,82,0.00,,,0.00,Wunderground v.1.15,2013-07-07 06:31:00,
2013-07-07 02:36:00,80.0,74.0,29.92,West,278,1.0,2.0,82,0.00,,,0.00,Wunderground v.1.15,2013-07-07 06:36:00,
2013-07-07 02:41:00,79.9,74.3,29.92,West,277,0.0,1.0,83,0.00,,,0.00,Wunderground v.1.15,2013-07-07 06:41:00,
2013-07-07 02:46:00,79.8,74.2,29.92,WNW,287,1.0,2.0,83,0.00,,,0.00,Wunderground v.1.15,2013-07-07 06:46:00,
2013-07-07 02:51:00,79.7,74.1,29.92,West,270,2.0,2.0,83,0.00,,,0.00,Wunderground v.1.15,2013-07-07 06:51:00,
2013-07-07 02:56:00,79.8,74.2,29.92,WSW,249,1.0,4.0,83,0.00,,,0.00,Wunderground v.1.15,2013-07-07 06:56:00,
2013-07-07 03:01:00,80.0,74.4,29.92,WNW,288,0.0,2.0,83,0.00,,,0.00,Wunderground v.1.15,2013-07-07 07:01:00,
2013-07-07 03:06:00,79.9,74.3,29.92,WSW,240,1.0,2.0,83,0.00,,,0.00,Wunderground v.1.15,2013-07-07 07:06:00,
2013-07-07 03:11:00,79.7,74.1,29.92,WNW,296,2.0,3.0,83,0.00,,,0.00,Wunderground v.1.15,2013-07-07 07:11:00,
2013-07-07 03:16:00,79.4,74.1,29.92,WSW,246,1.0,3.0,84,0.00,,,0.00,Wunderground v.1.15,2013-07-07 07:16:00,
2013-07-07 03:21:00,79.3,74.0,29.92,WNW,294,0.0,1.0,84,0.00,,,0.00,Wunderground v.1.15,2013-07-07 07:21:00,
2013-07-07 03:26:00,79.2,73.9,29.92,West,279,2.0,6.0,84,0.00,,,0.00,Wunderground v.1.15,2013-07-07 07:26:00,
2013-07-07 03:31:00,79.2,73.9,29.92,West,278,1.0,2.0,84,0.00,,,0.00,Wunderground v.1.15,2013-07-07 07:31:00,
2013-07-07 03:36:00,79.1,74.2,29.92,West,277,1.0,3.0,85,0.00,,,0.00,Wunderground v.1.15,2013-07-07 07:36:00,
2013-07-07 03:41:00,78.9,74.0,29.92,West,277,0.0,1.0,85,0.00,,,0.00,Wunderground v.1.15,2013-07-07 07:41:00,
2013-07-07 03:46:00,78.6,73.7,29.92,West,277,0.0,1.0,85,0.00,,,0.00,Wunderground v.1.15,2013-07-07 07:46:00,
2013-07-07 03:51:00,78.3,73.8,29.92,West,277,0.0,1.0,86,0.00,,,0.00,Wunderground v.1.15,2013-07-07 07:51:00,
2013-07-07 03:56:00,78.0,73.8,29.92,West,274,0.0,1.0,87,0.00,,,0.00,Wunderground v.1.15,2013-07-07 07:56:00,
2013-07-07 04:01:00,77.6,73.4,29.92,West,259,0.0,0.0,87,0.00,,,0.00,Wunderground v.1.15,2013-07-07 08:01:00,
2013-07-07 04:06:00,77.4,73.6,29.92,West,274,0.0,1.0,88,0.00,,,0.00,Wunderground v.1.15,2013-07-07 08:06:00,
2013-07-07 04:11:00,77.4,73.6,29.92,WNW,290,0.0,1.0,88,0.00,,,0.00,Wunderground v.1.15,2013-07-07 08:11:00,
2013-07-07 04:16:00,77.4,73.6,29.92,WNW,285,0.0,1.0,88,0.00,,,0.00,Wunderground v.1.15,2013-07-07 08:16:00,
2013-07-07 04:21:00,77.2,73.4,29.91,West,271,0.0,0.0,88,0.00,,,0.00,Wunderground v.1.15,2013-07-07 08:21:00,
2013-07-07 04:26:00,77.0,73.5,29.91,SW,214,1.0,2.0,89,0.00,,,0.00,Wunderground v.1.15,2013-07-07 08:26:00,
2013-07-07 04:31:00,76.9,73.4,29.91,SW,235,1.0,1.0,89,0.00,,,0.00,Wunderground v.1.15,2013-07-07 08:31:00,
2013-07-07 04:36:00,76.9,73.4,29.92,West,277,0.0,2.0,89,0.00,,,0.00,Wunderground v.1.15,2013-07-07 08:36:00,
2013-07-07 04:41:00,77.1,73.6,29.91,South,188,0.0,0.0,89,0.00,,,0.00,Wunderground v.1.15,2013-07-07 08:41:00,
2013-07-07 04:46:00,77.1,73.3,29.91,SW,228,0.0,3.0,88,0.00,,,0.00,Wunderground v.1.15,2013-07-07 08:46:00,
2013-07-07 04:51:00,77.0,73.5,29.91,SW,236,1.0,1.0,89,0.00,,,0.00,Wunderground v.1.15,2013-07-07 08:51:00,
2013-07-07 04:56:00,76.8,73.3,29.91,WSW,246,1.0,1.0,89,0.00,,,0.00,Wunderground v.1.15,2013-07-07 08:56:00,
2013-07-07 05:01:00,76.7,73.2,29.91,West,276,0.0,0.0,89,0.00,,,0.00,Wunderground v.1.15,2013-07-07 09:01:00,
2013-07-07 05:06:00,76.6,73.1,29.92,WSW,246,1.0,2.0,89,0.00,,,0.00,Wunderground v.1.15,2013-07-07 09:06:00,
2013-07-07 05:11:00,76.4,73.2,29.92,WSW,243,0.0,1.0,90,0.00,,,0.00,Wunderground v.1.15,2013-07-07 09:11:00,
2013-07-07 05:16:00,76.3,73.1,29.92,WSW,243,0.0,1.0,90,0.00,,,0.00,Wunderground v.1.15,2013-07-07 09:16:00,
2013-07-07 05:21:00,76.0,72.9,29.92,WSW,244,1.0,1.0,90,0.00,,,0.00,Wunderground v.1.15,2013-07-07 09:21:00,
2013-07-07 05:26:00,75.8,73.0,29.92,WSW,243,0.0,1.0,91,0.00,,,0.00,Wunderground v.1.15,2013-07-07 09:26:00,
2013-07-07 05:31:00,75.6,72.8,29.92,WSW,243,0.0,0.0,91,0.00,,,0.00,Wunderground v.1.15,2013-07-07 09:31:00,
2013-07-07 05:36:00,75.5,73.0,29.92,WSW,242,1.0,1.0,92,0.00,,,0.00,Wunderground v.1.15,2013-07-07 09:36:00,
2013-07-07 05:41:00,75.4,72.9,29.92,WSW,242,0.0,1.0,92,0.00,,,0.00,Wunderground v.1.15,2013-07-07 09:41:00,
2013-07-07 05:46:00,75.4,72.9,29.92,WSW,243,0.0,1.0,92,0.00,,,0.00,Wunderground v.1.15,2013-07-07 09:46:00,
2013-07-07 05:51:00,75.5,73.0,29.92,SW,218,0.0,1.0,92,0.00,,,0.00,Wunderground v.1.15,2013-07-07 09:51:00,
2013-07-07 05:56:00,75.5,72.7,29.92,WSW,258,0.0,2.0,91,0.00,,,0.00,Wunderground v.1.15,2013-07-07 09:56:00,
2013-07-07 06:01:00,75.7,72.9,29.92,WSW,256,0.0,0.0,91,0.00,,,0.00,Wunderground v.1.15,2013-07-07 10:01:00,
2013-07-07 06:06:00,75.7,72.9,29.92,WSW,252,0.0,1.0,91,0.00,,,0.00,Wunderground v.1.15,2013-07-07 10:06:00,
2013-07-07 06:11:00,75.9,73.1,29.92,WSW,257,3.0,3.0,91,0.00,,,0.00,Wunderground v.1.15,2013-07-07 10:11:00,
2013-07-07 06:16:00,76.2,73.1,29.92,WSW,240,0.0,3.0,90,0.00,,,0.00,Wunderground v.1.15,2013-07-07 10:16:00,
2013-07-07 06:21:00,76.7,73.2,29.92,WNW,285,2.0,2.0,89,0.00,,,0.00,Wunderground v.1.15,2013-07-07 10:21:00,
2013-07-07 06:26:00,77.1,73.3,29.92,SW,224,1.0,3.0,88,0.00,,,0.00,Wunderground v.1.15,2013-07-07 10:26:00,
2013-07-07 06:31:00,77.6,73.4,29.92,WNW,290,0.0,1.0,87,0.00,,,0.00,Wunderground v.1.15,2013-07-07 10:31:00,
2013-07-07 06:36:00,78.4,73.9,29.92,WNW,284,0.0,1.0,86,0.00,,,0.00,Wunderground v.1.15,2013-07-07 10:36:00,
2013-07-07 06:41:00,78.8,73.9,29.92,SW,220,1.0,2.0,85,0.00,,,0.00,Wunderground v.1.15,2013-07-07 10:41:00,
2013-07-07 06:46:00,78.8,73.6,29.92,WNW,288,2.0,4.0,84,0.00,,,0.00,Wunderground v.1.15,2013-07-07 10:46:00,
2013-07-07 06:51:00,79.0,73.7,29.92,SW,219,1.0,1.0,84,0.00,,,0.00,Wunderground v.1.15,2013-07-07 10:51:00,
2013-07-07 06:56:00,79.0,73.7,29.92,SW,226,2.0,4.0,84,0.00,,,0.00,Wunderground v.1.15,2013-07-07 10:56:00,
2013-07-07 07:01:00,79.0,73.7,29.92,WSW,252,3.0,5.0,84,0.00,,,0.00,Wunderground v.1.15,2013-07-07 11:01:00,
2013-07-07 07:06:00,79.0,73.7,29.92,SW,217,1.0,5.0,84,0.00,,,0.00,Wunderground v.1.15,2013-07-07 11:06:00,
2013-07-07 07:11:00,79.0,73.7,29.92,WNW,292,0.0,2.0,84,0.00,,,0.00,Wunderground v.1.15,2013-07-07 11:11:00,
2013-07-07 07:16:00,79.0,73.7,29.92,SW,214,0.0,5.0,84,0.00,,,0.00,Wunderground v.1.15,2013-07-07 11:16:00,
2013-07-07 07:21:00,79.2,73.9,29.92,WNW,285,2.0,4.0,84,0.00,,,0.00,Wunderground v.1.15,2013-07-07 11:21:00,
2013-07-07 07:26:00,79.3,74.0,29.92,SSE,159,2.0,4.0,84,0.00,,,0.00,Wunderground v.1.15,2013-07-07 11:26:00,
2013-07-07 07:31:00,79.5,73.9,29.93,NW,323,1.0,2.0,83,0.00,,,0.00,Wunderground v.1.15,2013-07-07 11:31:00,
2013-07-07 07:36:00,79.8,73.8,29.93,SSW,198,3.0,5.0,82,0.00,,,0.00,Wunderground v.1.15,2013-07-07 11:36:00,
2013-07-07 07:41:00,80.2,73.8,29.93,WSW,243,0.0,2.0,81,0.00,,,0.00,Wunderground v.1.15,2013-07-07 11:41:00,
2013-07-07 07:46:00,80.3,73.9,29.93,WSW,253,1.0,6.0,81,0.00,,,0.00,Wunderground v.1.15,2013-07-07 11:46:00,
2013-07-07 07:51:00,80.6,73.9,29.93,WNW,288,2.0,4.0,80,0.00,,,0.00,Wunderground v.1.15,2013-07-07 11:51:00,
2013-07-07 07:56:00,80.7,74.0,29.93,West,278,1.0,6.0,80,0.00,,,0.00,Wunderground v.1.15,2013-07-07 11:56:00,
2013-07-07 08:01:00,80.7,74.0,29.93,WNW,285,2.0,3.0,80,0.00,,,0.00,Wunderground v.1.15,2013-07-07 12:01:00,
2013-07-07 08:06:00,80.9,73.8,29.92,WNW,283,1.0,4.0,79,0.00,,,0.00,Wunderground v.1.15,2013-07-07 12:06:00,
2013-07-07 08:11:00,81.0,73.9,29.92,West,261,3.0,4.0,79,0.00,,,0.00,Wunderground v.1.15,2013-07-07 12:11:00,
2013-07-07 08:16:00,81.1,74.0,29.93,WNW,291,2.0,7.0,79,0.00,,,0.00,Wunderground v.1.15,2013-07-07 12:16:00,
2013-07-07 08:21:00,81.5,74.4,29.93,West,267,1.0,2.0,79,0.00,,,0.00,Wunderground v.1.15,2013-07-07 12:21:00,
2013-07-07 08:26:00,82.1,74.2,29.93,WNW,291,1.0,6.0,77,0.00,,,0.00,Wunderground v.1.15,2013-07-07 12:26:00,
2013-07-07 08:31:00,82.2,74.3,29.92,West,271,1.0,2.0,77,0.00,,,0.00,Wunderground v.1.15,2013-07-07 12:31:00,
2013-07-07 08:35:00,82.7,74.4,29.93,West,281,2.0,8.0,76,0.00,,,0.00,Wunderground v.1.15,2013-07-07 12:35:00,
2013-07-07 08:40:00,82.6,74.3,29.93,WNW,287,2.0,2.0,76,0.00,,,0.00,Wunderground v.1.15,2013-07-07 12:40:00,
2013-07-07 08:45:00,82.5,74.2,29.93,WSW,253,0.0,7.0,76,0.00,,,0.00,Wunderground v.1.15,2013-07-07 12:45:00,
2013-07-07 08:50:00,82.7,74.4,29.93,NW,314,0.0,2.0,76,0.00,,,0.00,Wunderground v.1.15,2013-07-07 12:50:00,
2013-07-07 08:55:00,83.0,74.6,29.93,NE,36,1.0,6.0,76,0.00,,,0.00,Wunderground v.1.15,2013-07-07 12:55:00,
2013-07-07 09:00:00,83.3,74.5,29.92,ESE,103,1.0,2.0,75,0.00,,,0.00,Wunderground v.1.15,2013-07-07 13:00:00,
2013-07-07 09:05:00,83.4,74.6,29.92,WNW,291,0.0,4.0,75,0.00,,,0.00,Wunderground v.1.15,2013-07-07 13:05:00,
2013-07-07 09:10:00,84.1,74.9,29.92,NNW,329,1.0,2.0,74,0.00,,,0.00,Wunderground v.1.15,2013-07-07 13:10:00,
2013-07-07 09:15:00,83.9,74.7,29.92,WNW,290,1.0,6.0,74,0.00,,,0.00,Wunderground v.1.15,2013-07-07 13:15:00,
2013-07-07 09:20:00,83.9,74.7,29.92,WNW,285,2.0,2.0,74,0.00,,,0.00,Wunderground v.1.15,2013-07-07 13:20:00,
2013-07-07 09:25:00,84.2,75.0,29.92,WSW,246,2.0,5.0,74,0.00,,,0.00,Wunderground v.1.15,2013-07-07 13:25:00,
2013-07-07 09:30:00,84.3,74.7,29.92,West,274,5.0,6.0,73,0.00,,,0.00,Wunderground v.1.15,2013-07-07 13:30:00,
2013-07-07 09:35:00,84.1,74.9,29.92,SSW,203,1.0,6.0,74,0.00,,,0.00,Wunderground v.1.15,2013-07-07 13:35:00,
2013-07-07 09:40:00,84.5,74.9,29.92,NNW,346,2.0,6.0,73,0.00,,,0.00,Wunderground v.1.15,2013-07-07 13:40:00,
2013-07-07 09:45:00,84.9,75.3,29.92,North,353,1.0,5.0,73,0.00,,,0.00,Wunderground v.1.15,2013-07-07 13:45:00,
2013-07-07 09:50:00,85.2,75.6,29.91,North,9,3.0,5.0,73,0.00,,,0.00,Wunderground v.1.15,2013-07-07 13:50:00,
2013-07-07 09:55:00,85.4,75.3,29.91,WSW,249,1.0,5.0,72,0.00,,,0.00,Wunderground v.1.15,2013-07-07 13:55:00,
2013-07-07 10:00:00,85.4,75.3,29.91,North,352,3.0,5.0,72,0.00,,,0.00,Wunderground v.1.15,2013-07-07 14:00:00,
2013-07-07 10:05:00,85.3,75.2,29.91,WNW,286,1.0,6.0,72,0.00,,,0.00,Wunderground v.1.15,2013-07-07 14:05:00,
2013-07-07 10:10:00,85.0,75.4,29.91,West,266,2.0,6.0,73,0.00,,,0.00,Wunderground v.1.15,2013-07-07 14:10:00,
2013-07-07 18:39:00,92.5,75.0,29.81,WNW,293,2.0,3.0,57,0.00,,,0.00,Wunderground v.1.15,2013-07-07 22:39:00,
2013-07-07 18:44:00,92.2,73.7,29.81,WNW,292,3.0,9.0,55,0.00,,,0.00,Wunderground v.1.15,2013-07-07 22:44:00,
2013-07-07 18:49:00,91.8,72.8,29.81,West,274,6.0,6.0,54,0.00,,,0.00,Wunderground v.1.15,2013-07-07 22:49:00,
2013-07-07 18:54:00,91.6,73.7,29.81,NNW,338,1.0,7.0,56,0.00,,,0.00,Wunderground v.1.15,2013-07-07 22:54:00,
2013-07-07 19:00:00,91.8,73.9,29.81,West,271,4.0,4.0,56,0.00,,,0.00,Wunderground v.1.15,2013-07-07 23:00:00,
2013-07-07 19:05:00,91.7,73.8,29.81,West,271,7.0,7.0,56,0.00,,,0.00,Wunderground v.1.15,2013-07-07 23:05:00,
2013-07-07 19:10:00,91.7,74.3,29.81,NW,321,5.0,7.0,57,0.00,,,0.00,Wunderground v.1.15,2013-07-07 23:10:00,
2013-07-07 19:15:00,91.5,74.1,29.81,WNW,285,1.0,6.0,57,0.00,,,0.00,Wunderground v.1.15,2013-07-07 23:15:00,
2013-07-07 19:20:00,91.1,74.3,29.81,West,276,3.0,3.0,58,0.00,,,0.00,Wunderground v.1.15,2013-07-07 23:20:00,
2013-07-07 19:25:00,90.5,74.2,29.81,SW,215,2.0,8.0,59,0.00,,,0.00,Wunderground v.1.15,2013-07-07 23:25:00,
2013-07-07 19:30:00,90.1,74.3,29.82,WNW,283,2.0,3.0,60,0.00,,,0.00,Wunderground v.1.15,2013-07-07 23:30:00,
2013-07-07 19:35:00,89.5,74.3,29.82,WSW,250,2.0,5.0,61,0.00,,,0.00,Wunderground v.1.15,2013-07-07 23:35:00,
2013-07-07 19:40:00,89.2,74.5,29.82,West,269,3.0,3.0,62,0.00,,,0.00,Wunderground v.1.15,2013-07-07 23:40:00,
2013-07-07 19:45:00,89.0,74.3,29.82,West,281,2.0,5.0,62,0.00,,,0.00,Wunderground v.1.15,2013-07-07 23:45:00,
2013-07-07 19:50:00,88.8,74.6,29.82,North,5,1.0,2.0,63,0.00,,,0.00,Wunderground v.1.15,2013-07-07 23:50:00,
2013-07-07 19:55:00,88.7,74.5,29.82,SW,235,0.0,4.0,63,0.00,,,0.00,Wunderground v.1.15,2013-07-07 23:55:00,
2013-07-07 20:01:00,88.7,74.5,29.82,WSW,255,5.0,5.0,63,0.00,,,0.00,Wunderground v.1.15,2013-07-08 00:01:00,
2013-07-07 20:06:00,88.6,74.9,29.82,WNW,284,4.0,8.0,64,0.00,,,0.00,Wunderground v.1.15,2013-07-08 00:06:00,
2013-07-07 20:11:00,88.5,74.8,29.83,West,279,1.0,4.0,64,0.00,,,0.00,Wunderground v.1.15,2013-07-08 00:11:00,
2013-07-07 20:16:00,88.3,75.0,29.83,WSW,253,3.0,8.0,65,0.00,,,0.00,Wunderground v.1.15,2013-07-08 00:16:00,
2013-07-07 20:21:00,88.2,75.4,29.83,WNW,294,3.0,5.0,66,0.00,,,0.00,Wunderground v.1.15,2013-07-08 00:21:00,
2013-07-07 20:26:00,88.0,75.2,29.83,WNW,283,3.0,6.0,66,0.00,,,0.00,Wunderground v.1.15,2013-07-08 00:26:00,
2013-07-07 20:31:00,87.8,75.5,29.84,SSE,153,0.0,3.0,67,0.00,,,0.00,Wunderground v.1.15,2013-07-08 00:31:00,
2013-07-07 20:36:00,87.7,75.4,29.84,WNW,285,5.0,9.0,67,0.00,,,0.00,Wunderground v.1.15,2013-07-08 00:36:00,
2013-07-07 20:41:00,87.6,75.7,29.84,WNW,287,5.0,5.0,68,0.00,,,0.00,Wunderground v.1.15,2013-07-08 00:41:00,
2013-07-07 20:46:00,87.0,72.4,29.86,WNW,291,7.0,13.0,62,0.00,,,0.00,Wunderground v.1.15,2013-07-08 00:46:00,
2013-07-07 20:51:00,85.2,71.6,29.86,NW,321,5.0,10.0,64,0.00,,,0.00,Wunderground v.1.15,2013-07-08 00:51:00,
2013-07-07 20:56:00,83.9,71.8,29.84,West,267,2.0,14.0,67,0.00,,,0.00,Wunderground v.1.15,2013-07-08 00:56:00,
2013-07-07 21:01:00,83.1,71.4,29.84,North,354,2.0,4.0,68,0.00,,,0.00,Wunderground v.1.15,2013-07-08 01:01:00,
2013-07-07 21:06:00,82.6,71.4,29.84,NNW,333,4.0,6.0,69,0.00,,,0.00,Wunderground v.1.15,2013-07-08 01:06:00,
2013-07-07 21:12:00,82.0,71.2,29.83,NNE,16,2.0,4.0,70,0.00,,,0.00,Wunderground v.1.15,2013-07-08 01:12:00,
2013-07-07 21:17:00,81.6,71.3,29.83,North,354,1.0,4.0,71,0.00,,,0.00,Wunderground v.1.15,2013-07-08 01:17:00,
2013-07-07 21:22:00,81.3,71.4,29.84,West,269,5.0,5.0,72,0.00,,,0.00,Wunderground v.1.15,2013-07-08 01:22:00,
2013-07-07 21:27:00,81.2,71.7,29.84,WNW,283,3.0,6.0,73,0.00,,,0.00,Wunderground v.1.15,2013-07-08 01:27:00,
2013-07-07 21:32:00,81.2,71.7,29.84,West,268,0.0,2.0,73,0.00,,,0.00,Wunderground v.1.15,2013-07-08 01:32:00,
2013-07-07 21:37:00,81.0,71.5,29.84,SW,236,0.0,2.0,73,0.00,,,0.00,Wunderground v.1.15,2013-07-08 01:37:00,
2013-07-07 21:42:00,80.8,71.3,29.83,WNW,294,1.0,1.0,73,0.00,,,0.00,Wunderground v.1.15,2013-07-08 01:42:00,
2013-07-07 21:47:00,80.5,71.4,29.83,WSW,256,1.0,3.0,74,0.00,,,0.00,Wunderground v.1.15,2013-07-08 01:47:00,
2013-07-07 21:52:00,80.1,71.1,29.83,West,279,0.0,2.0,74,0.00,,,0.00,Wunderground v.1.15,2013-07-08 01:52:00,
2013-07-07 21:57:00,79.8,70.8,29.84,WNW,293,2.0,5.0,74,0.00,,,0.00,Wunderground v.1.15,2013-07-08 01:57:00,
2013-07-07 22:03:00,79.6,70.6,29.84,WNW,292,1.0,5.0,74,0.00,,,0.00,Wunderground v.1.15,2013-07-08 02:03:00,
2013-07-07 22:08:00,79.4,70.8,29.84,WNW,284,2.0,5.0,75,0.00,,,0.00,Wunderground v.1.15,2013-07-08 02:08:00,
2013-07-07 22:13:00,79.1,70.5,29.84,NNW,345,3.0,5.0,75,0.00,,,0.00,Wunderground v.1.15,2013-07-08 02:13:00,
2013-07-07 22:18:00,78.9,70.3,29.84,WNW,288,3.0,5.0,75,0.00,,,0.00,Wunderground v.1.15,2013-07-08 02:18:00,
2013-07-07 22:23:00,78.9,70.3,29.84,WNW,293,2.0,4.0,75,0.00,,,0.00,Wunderground v.1.15,2013-07-08 02:23:00,
2013-07-07 22:28:00,78.7,70.5,29.84,WNW,283,3.0,4.0,76,0.00,,,0.00,Wunderground v.1.15,2013-07-08 02:28:00,
2013-07-07 22:33:00,78.6,70.4,29.85,West,266,3.0,5.0,76,0.00,,,0.00,Wunderground v.1.15,2013-07-08 02:33:00,
2013-07-07 22:38:00,78.3,70.5,29.85,WNW,283,3.0,6.0,77,0.00,,,0.00,Wunderground v.1.15,2013-07-08 02:38:00,
2013-07-07 22:43:00,78.0,70.6,29.85,WNW,297,5.0,7.0,78,0.00,,,0.00,Wunderground v.1.15,2013-07-08 02:43:00,
2013-07-07 22:48:00,77.8,70.8,29.86,West,259,3.0,8.0,79,0.00,,,0.00,Wunderground v.1.15,2013-07-08 02:48:00,
2013-07-07 22:53:00,77.5,70.8,29.86,WNW,297,2.0,6.0,80,0.00,,,0.00,Wunderground v.1.15,2013-07-08 02:53:00,
2013-07-07 22:58:00,77.3,71.0,29.86,West,277,4.0,6.0,81,0.00,,,0.00,Wunderground v.1.15,2013-07-08 02:58:00,
2013-07-07 23:03:00,77.2,70.9,29.86,WSW,245,1.0,6.0,81,0.00,,,0.00,Wunderground v.1.15,2013-07-08 03:03:00,
2013-07-07 23:08:00,77.1,70.8,29.86,West,269,6.0,8.0,81,0.00,,,0.00,Wunderground v.1.15,2013-07-08 03:08:00,
2013-07-07 23:13:00,77.1,70.8,29.86,West,276,3.0,7.0,81,0.00,,,0.00,Wunderground v.1.15,2013-07-08 03:13:00,
2013-07-07 23:18:00,77.1,70.8,29.86,WSW,238,5.0,7.0,81,0.00,,,0.00,Wunderground v.1.15,2013-07-08 03:18:00,
2013-07-07 23:23:00,77.0,70.4,29.86,West,280,4.0,6.0,80,0.00,,,0.00,Wunderground v.1.15,2013-07-08 03:23:00,
2013-07-07 23:28:00,76.8,70.2,29.86,WNW,297,5.0,7.0,80,0.00,,,0.00,Wunderground v.1.15,2013-07-08 03:28:00,
2013-07-07 23:33:00,76.7,70.4,29.86,ESE,122,2.0,3.0,81,0.00,,,0.00,Wunderground v.1.15,2013-07-08 03:33:00,
2013-07-07 23:38:00,76.5,70.2,29.86,West,277,3.0,5.0,81,0.00,,,0.00,Wunderground v.1.15,2013-07-08 03:38:00,
2013-07-07 23:44:00,76.3,70.0,29.86,WNW,298,2.0,4.0,81,0.00,,,0.00,Wunderground v.1.15,2013-07-08 03:44:00,
2013-07-07 23:49:00,76.1,69.8,29.86,West,276,4.0,5.0,81,0.00,,,0.00,Wunderground v.1.15,2013-07-08 03:49:00,
2013-07-07 23:54:00,75.9,69.6,29.86,WNW,283,5.0,7.0,81,0.00,,,0.00,Wunderground v.1.15,2013-07-08 03:54:00,
2013-07-07 23:59:00,75.8,69.6,29.86,SW,218,3.0,7.0,81,0.00,,,0.00,Wunderground v.1.15,2013-07-08 03:59:00,